Satellite-Ground Cal/Val Site Overpasses Predictions

Prediction of Satellite NPP Overpassing Cal/Val Site: Antarctic Dome C

Ground Cal/Val Site Location: Latitude: -75.10, Longitude: 123.35; Satellite-Ground Site NADIR distance within 100 km.

Table of predicted overpasses for the next 14.0 days since TLE Epoch: 2/13/2021
Interval Starting Time Ending Time Minimum Distance Time Minimum Distance (km)
1 02/14/2021 15:00:49 02/14/2021 15:01:13 02/14/2021 15:01:01 58.11
2 02/15/2021 14:41:59 02/15/2021 14:42:24 02/15/2021 14:42:12 51.12
3 02/16/2021 07:43:40 02/16/2021 07:44:01 02/16/2021 07:43:51 71.26
4 02/17/2021 07:24:47 02/17/2021 07:25:14 02/17/2021 07:25:01 36.76
5 02/19/2021 15:07:14 02/19/2021 15:07:21 02/19/2021 15:07:17 95.85
6 02/20/2021 14:48:13 02/20/2021 14:48:42 02/20/2021 14:48:28 15.45
7 02/22/2021 07:31:02 02/22/2021 07:31:32 02/22/2021 07:31:17 0.03
8 02/25/2021 14:54:29 02/25/2021 14:54:57 02/25/2021 14:54:43 20.97
